Regional Weather Roundup
Issued by NWS

Home | Current Version | Previous Version | Graphics & Text | Print | Product List | Glossary On
Versions: 1 2 3 4 5 6 7 8 9 10 11 12 13 14 15 16 17 18 19 20 21 22 23 24 25 26 27 28 29 30 31 32 33 34 35 36 37 38 39 40 41 42 43 44 45 46 47 48 49 50
000
ASUS43 KMPX 181801
RWRMN
WEATHER ROUNDUP FOR MINNESOTA
NATIONAL WEATHER SERVICE TWIN CITIES/CHANHASSEN MN
100 PM CDT THU SEP 18 2014


NOTE: "FAIR" INDICATES FEW OR NO CLOUDS BELOW 12,000 FEET WITH NO
SIGNIFICANT WEATHER AND/OR OBSTRUCTIONS TO VISIBILITY. N/A MEANS
CURRENT SKY AND/OR WEATHER CONDITIONS ARE NOT AVAILABLE.

MNZ060>063-068>070-181900-
   Twin Cities Metro

CITY           SKY/WX    TMP DP  RH WIND       PRES   REMARKS
TWIN CITIES    MOSUNNY   66  55  67 VRB7      30.08F
6HR MIN TEMP:  48; 6HR MAX TEMP:  66;

ST PAUL        SUNNY     66  56  70 S5        30.09F
CRYSTAL        SUNNY     66  52  60 S8        30.07F
BLAINE         MOSUNNY   64  55  72 E7        30.09F
LAKEVILLE      MOSUNNY   70  55  60 S6        30.07F
EDEN PRAIRIE     N/A    N/A N/A N/A MISG        N/A
SOUTH ST PAUL  SUNNY     65  55  68 E5        30.09F
LAKE ELMO      FAIR      64  55  72 SE6       30.10F
$$
MNZ001>005-007-008-013>017-022>024-027-028-181900-
   Northwest Minnesota

CITY           SKY/WX    TMP DP  RH WIND       PRES   REMARKS
BEMIDJI        SUNNY     59  47  63 SE9       30.02F
HALLOCK        MOSUNNY   61  52  72 S15       29.93F
ROSEAU         CLOUDY    52  46  82 SE8       29.99F
WARROAD        CLOUDY    52  46  82 SE7       30.01F
THIEF RVR FALL SUNNY     64  52  63 SE12      29.96F
CROOKSTON      SUNNY     66  54  63 S13       29.95F
FOSSTON        SUNNY     66  54  63 SE9       29.98F
DETROIT LAKES  SUNNY     59  52  77 SE12      30.00F
MOORHEAD       SUNNY     66  55  68 S13G20    29.96F
PARK RAPIDS    SUNNY     59  47  64 SE8       30.03F
MAHNOMEN       FAIR      63  53  68 SE7       29.99S
$$
MNZ006-009>011-018-025>026-181900-
   North Central Minnesota

CITY           SKY/WX    TMP DP  RH WIND       PRES   REMARKS
BAUDETTE       CLOUDY    48  45  89 SE7G16    30.04F
FLAG ISLAND    CLOUDY    46  45  93 SE15      30.01F
INTL FALLS     CLOUDY    51  43  74 VRB7      30.07F
6HR MIN TEMP:  42; 6HR MAX TEMP:  51;

WASKISH        MOSUNNY   55  48  76 SE6       30.03F
BIG FORK       MOSUNNY   57  46  67 S7        30.07F
LONGVILLE      SUNNY     57  48  72 S9        30.06F
GRAND RAPIDS   MOSUNNY   54  43  66 SE9       30.08F
CRANE LAKE     CLOUDY    50  41  71 S6        30.11F
ORR            CLOUDY    54  41  62 SE8       30.06F
COOK           CLOUDY    52  43  71 SE7       30.10F
WALKER         FAIR      56  46  69 E7        30.04F
$$
MNZ012-019>021-037-181900-
   Northeast Minnesota

CITY           SKY/WX    TMP DP  RH WIND       PRES   REMARKS
DULUTH         CLOUDY    48  40  73 SE15      30.14S
6HR MIN TEMP:  42; 6HR MAX TEMP:  49;

ELY            CLOUDY    48  37  66 SE10      30.12F
HIBBING        MOSUNNY   55  43  63 S9        30.10F
EVELETH        PTSUNNY   52  41  66 SE9       30.12F
DULUTH HARBOR  CLOUDY    48  43  81 NE9       30.16F
TWO HARBORS    MOSUNNY   48  37  66 E13       30.14F
SILVER BAY     SUNNY     45  41  87 E10       30.16S
GRAND MARAIS     N/A     48  36  63 SE7       30.20F
G MARAIS ARPRT PTSUNNY   41  30  65 E9        30.18S
$$
MNZ029>031-032-039>041-046>048-054>057-064-181900-
   West Central Minnesota

CITY           SKY/WX    TMP DP  RH WIND       PRES   REMARKS
FERGUS FALLS   SUNNY     63  50  63 SE15      30.00F
WHEATON        PTSUNNY   59  54  82 SE13      29.99F
MORRIS         SUNNY     64  55  72 SE14      30.00F
ALEXANDRIA     MOSUNNY   58  52  80 SE10      30.05F
ELBOW LAKE     FAIR      60  53  75 SE14      30.00F
WADENA         SUNNY     57  48  72 SE10      30.04S
GLENWOOD       SUNNY     63  54  72 SE8       30.05F
APPLETON       SUNNY     70  57  64 SE10      30.00F
BENSON         SUNNY     66  55  68 S12       30.02F
ORTONVILLE     MOSUNNY   64  55  72 SE12      29.98F
MADISON        SUNNY     75  59  57 S9        29.98F
WILLMAR        FAIR      70  55  60 SE9       30.05F
$$
MNZ033>034-036-042>043-049>051-058-059-181900-
   Central Minnesota

CITY           SKY/WX    TMP DP  RH WIND       PRES   REMARKS
ST CLOUD       MOSUNNY   64  51  62 SE7       30.08F
6HR MIN TEMP:  47; 6HR MAX TEMP:  64;

SAUK CENTRE    FAIR      59  51  76 SE9       30.06F
PAYNESVILLE    SUNNY     60  52  76 E7        30.06F
AITKIN         CLOUDY    55  46  71 E5        30.08F
PINE RIVER     CLOUDY    52  46  82 SE9       30.10F
BRAINERD       CLOUDY    51  47  86 SE8       30.09F
STAPLES        MOSUNNY   54  46  76 SE6       30.06F
LONG PRAIRIE   CLOUDY    54  48  82 E9        30.07F
LITTLE FALLS   CLOUDY    54  46  76 S6        30.08F
LITCHFIELD     SUNNY     68  57  68 SE7       30.06F
BUFFALO        SUNNY     67  53  61 S6        30.08F
MAPLE LAKE     SUNNY     64  56  74 CALM      30.08F
$$
MNZ037-044-045-052-053-181900-
   East Central Minnesota

CITY           SKY/WX    TMP DP  RH WIND       PRES   REMARKS
PRINCETON      PTSUNNY   57  52  82 E5        30.09F
MORA           CLOUDY    50  46  87 SE3       30.13S
CAMBRIDGE      PTSUNNY   59  48  67 E5        30.08F
RUSH CITY      CLOUDY    56  51  83 CALM      30.11F
MOOSE LAKE     CLOUDY    50  45  81 E5        30.11S
HINCKLEY       CLOUDY    52  50  93 E5        30.12S
CLOQUET        CLOUDY    46  43  87 E5        30.13S
MCGREGOR       CLOUDY    52  45  76 SE8       30.12S
$$
MNZ071>073-080-081-089-090-097-098-181900-
   Southwest Minnesota

CITY           SKY/WX    TMP DP  RH WIND       PRES   REMARKS
MONTEVIDEO     SUNNY     73  61  64 S12G17    30.01F
GRANITE FALLS  SUNNY     74  56  53 S16G25    30.03F
CANBY          PTSUNNY   74  54  49 S9G20     30.00F
MARSHALL       MOSUNNY   75  54  46 S15G24    30.00F
REDWOOD FALLS  MOSUNNY   73  55  53 S12       30.03F
OLIVIA         SUNNY     72  57  60 S10G16    30.03F
PIPESTONE      SUNNY     73  54  49 S16G23    30.02F
WINDOM         SUNNY     72  52  49 S10       30.05F
WORTHINGTON    SUNNY     72  54  53 S10G21    30.05F
JACKSON        SUNNY     72  52  49 SE10      30.06F
TRACY          SUNNY     73  56  55 S15       30.03F
SLAYTON        MOSUNNY   72  53  52 S13       30.04F
$$
MNZ065>067-074>077-082>085-091>093-181900-
   South Central Minnesota

CITY           SKY/WX    TMP DP  RH WIND       PRES   REMARKS
MANKATO        MOSUNNY   72  52  49 S9G17     30.06F
NEW ULM        SUNNY     72  55  56 S15       30.05S
ST JAMES       SUNNY     73  52  46 S12G17    30.06F
FAIRMONT       MOSUNNY   70  52  52 S13       30.06F
GLENCOE        SUNNY     73  53  49 S6        30.06F
FARIBAULT      MOSUNNY   75  48  38 S6        30.08F
OWATONNA       SUNNY     72  54  53 S9G17     30.08F
WASECA         SUNNY     72  46  40 S13G18    30.09F
ALBERT LEA     SUNNY     72  54  53 S8G17     30.08F
$$
MNZ078>079-086>088-094>096-181900-
   Southeast Minnesota

CITY           SKY/WX    TMP DP  RH WIND       PRES   REMARKS
ROCHESTER      MOSUNNY   70  54  56 SE8       30.10F
6HR MIN TEMP:  48; 6HR MAX TEMP:  70;

RED WING       SUNNY     66  55  68 SE9       30.09F
STANTON        PTSUNNY   71  53  54 S8        30.07F
DODGE CENTER   MOSUNNY   70  54  56 S12G17    30.10S
WINONA         SUNNY     61  54  77 SE8       30.13F
AUSTIN         SUNNY     70  55  60 S12       30.09F
PRESTON        MOSUNNY   67  58  73 S12       30.11F
$$
ABBREVIATIONS USED IN REMARKS
   TC - TEMPERATURES IN CELSIUS
  WCI - WIND CHILL INDEX
   HX - HEAT INDEX
  VSB - VISIBILITY
$$


USA.gov is the U.S. government's official web portal to all federal, state and local government web resources and services.